Hourly Weather Roundup
Issued by NWS Central Illinois

Home | Current Version | Previous Version | Text Only | Print | Product List | Glossary On
Versions: 1 2 3 4 5 6 7 8 9 10 11 12 13 14 15 16 17 18 19 20 21 22 23 24 25 26 27 28 29 30 31 32 33 34 35 36 37 38 39 40 41 42 43 44 45 46 47 48 49 50
000
NZUS43 KILX 252110
HWRILX

AREA WEATHER ROUNDUP
NATIONAL WEATHER SERVICE, LINCOLN IL
300 PM CST SAT FEB 25 2017


CITY           SKY/WX    TMP DP  RH WIND       PRES   REMARKS
BLOOMINGTON    PTSUNNY   32  17  54 NW18      29.99R WCI  20
CHAMPAIGN      MOSUNNY   35  14  42 W25G31    29.99R WCI  23
DECATUR        SUNNY     34  13  41 W22G30    30.02R WCI  22
EFFINGHAM      MOSUNNY  N/A N/A N/A W14G23    30.06R
FLORA          MOSUNNY   39  19  44 W16G25    30.06R WCI  30
GALESBURG      SUNNY     30  19  64 W17G25    30.02S WCI  18
JACKSONVILLE   MOSUNNY   34  13  42 W18G31    30.06S WCI  23
LACON          PTSUNNY   31  17  56 W15G22    30.00R WCI  20
LAWRENCEVILLE  MOSUNNY   37  16  42 W22       30.05R WCI  26
LITCHFIELD     SUNNY     35  17  46 W24       30.07R WCI  23
$$


CITY           SKY/WX    TMP DP  RH WIND       PRES   REMARKS
LINCOLN        SUNNY     33  16  49 W9G24     30.03R WCI  25
MACOMB         CLOUDY    32  16  51 W17G28    30.07R WCI  21
MATTOON        MOSUNNY   36  15  42 W26G32    30.01R WCI  24
MT CARMEL AP   MOSUNNY   37  19  48 NW18G25   30.05R WCI  27
OLNEY-NOBLE AP PTSUNNY   36  19  51 W16G22    30.06R WCI  26
PARIS          PTSUNNY   35  17  48 W20G31    30.01R WCI  24
PEORIA         MOSUNNY   31  16  54 NW12G24   30.02R WCI  22
PONTIAC        PTSUNNY   32  18  57 W24G31    29.98R WCI  18
RANTOUL        PTSUNNY   33  19  55 W21G28    29.98R WCI  22
SPRINGFIELD    MOSUNNY   37  16  42 W23       30.05R WCI  26
TAYLORVILLE    MOSUNNY   34  14  43 W14G24    30.05R WCI  24
$$

...REGIONAL REPORTS...


CITY           SKY/WX    TMP DP  RH WIND       PRES   REMARKS
CHICAGO O`HARE FLURRIES  26  14  60 W18       29.91R WCI  13
KANKAKEE       PTSUNNY   30  15  54 W18G26    29.95R WCI  18
MOLINE         SUNNY     32  17  54 W18G28    30.01R WCI  20
MOUNT STERLING SUNNY     33  16  48 NW15G22   30.06R WCI  23
MOUNT VERNON   MOSUNNY   39  15  37 VRB7G17   30.07S WCI  34
PITTSFIELD     SUNNY     35  14  41 NW13G23   30.08S WCI  26
QUINCY         SUNNY     35  13  40 NW15G24   30.07S WCI  25
ROCKFORD       PTSUNNY   26  15  63 W21G26    29.95R WCI  12
$$


CITY           SKY/WX    TMP DP  RH WIND       PRES   REMARKS
BURLINGTON     MOSUNNY   33  15  47 NW16G26   30.05R WCI  23
CEDAR RAPIDS   SUNNY     27  17  66 NW16      30.02R WCI  15
DES MOINES     PTSUNNY   31  14  49 VRB7      30.06F WCI  24
KIRKSVILLE     SUNNY     36  10  34 W9        30.09S WCI  29
OTTUMWA        MOSUNNY   32  15  49 NW14      30.06S WCI  22
ST LOUIS       MOSUNNY   41  13  31 NW22      30.09R WCI  31
$$


CITY           SKY/WX    TMP DP  RH WIND       PRES   REMARKS
TERRE HAUTE    PTSUNNY   35  15  44 W17G24    30.01R WCI  25
EVANSVILLE     MOSUNNY   40  17  39 W14G24    30.06R WCI  32
INDIANAPOLIS   PTSUNNY   32  16  51 W24       29.96R WCI  19
LAFAYETTE      CLOUDY    28  20  71 W17G24    29.95R WCI  16
MADISON        MOSUNNY   24  13  62 NW15G23   29.89R WCI  11
MILWAUKEE      FLURRIES  22   9  57 W16G25    29.88R WCI   8
$$






USA.gov is the U.S. government's official web portal to all federal, state and local government web resources and services.